Volver al catálogo

COSMOS 2268

ActivoMilitarPO
NORAD 22999·PAYLOAD·🇷🇺 Russia

Lanzado Feb 12, 1994 desde Plesetsk Cosmodrome

Loading…

Próximos Pases (próximas 24 horas)

TLE

ActualizadoSource: Space-Track

Época: Sep 14, 2026, 13:20 UTC

1 22999U 94011A   26257.55600752  .00000007  00000-0 -17338-4 0  9992
2 22999  82.5726 283.5937 0010246   7.2296 160.8413 12.61229406500022

Sigue COSMOS 2268 en tiempo real con AllMySat

Download on the App Store